STARLINK-3355 (50808 NORAD) Tracking and Keplerian Element Data

This shows tracking and keplerian element data for the satellite.

Feedback or suggestion? Click here.




ElementValue
Catalog50808
NameSTARLINK-3355
Epoch Orbit130
Epoch Day140.58334491
Epoch Year2022
RAAN275.0629
Inclination53.2157
Eccentricity0.0002033
Argument of Perigee35.4551
Mean Anonmoly126.0851
Mean Motion15.08846827
Decay Rate-0.00022343
L11 50808U 22001F 22140.58334491 -.00022343 00000+0 -13898-2 0 9998
L22 50808 53.2157 275.0629 0002033 35.4551 126.0851 15.08846827 1304

Live tracking and technical data element details for STARLINK-3355 (NORAD 50808). STARLINK-3355 can be tracked NOW for your location showing map with azimuth and elevation plus other details from your city location.

Track the satellite on the map from your city or location and see movement details for azimuth, elevation, latitude, longitude, range, height, and movement on the map or in text.







IsCatalogInMostPopularTable: catalog: 50808, numindb: 17
Update: records affected: 1



GetName: 50808 STARLINK-3355

Hit Count: updated at: Sun, 22 May 2022 03:28:46 GMT